Location: Unspecified
(0.0000°N, 0.0000°E)
Time: 12:13:15
(UTC+00:00)

S-56A Canister/Altair - Pass Details

Date: 25 November 2019
Orbit: 633 x 2499 km, 38.9° (Epoch: 10 December)

Event Time Altitude Azimuth Distance (km) Brightness Sun altitude
Rises 01:11:57 0° 273° (W) 2,916 - -60.7°
Reaches altitude 10° 01:15:07 10° 248° (WSW) 2,081 - -60.1°
Maximum altitude 01:17:44 15° 213° (SSW) 1,891 - -59.7°
Drops below altitude 10° 01:20:39 10° 179° (S) 2,364 - -59.1°
Sets 01:24:41 0° 156° (SSE) 3,603 - -58.4°
